| time (UTC) | temp F | wind direction | speed MPH | gust MPH | rain 1hr in | rain 24hr in | rain mn in | humidity % | barometer mb |
| 20260906153000 | 93 | 330 | 2.0 | 6.0 | 0.00 | 0.00 | 0.00 | 55 | 1011.4 |
| 20260906152500 | 93 | 353 | 4.0 | 5.0 | 0.00 | 0.00 | 0.00 | 50 | 1011.3 |
| 20260906152000 | 92 | 37 | 3.0 | 5.0 | 0.00 | 0.00 | 0.00 | 53 | 1011.3 |
| 20260906151500 | 92 | 24 | 3.0 | 6.0 | 0.00 | 0.00 | 0.00 | 53 | 1011.3 |
| 20260906151000 | 92 | 38 | 4.0 | 6.0 | 0.00 | 0.00 | 0.00 | 57 | 1011.4 |
| 20260906150500 | 91 | 323 | 2.0 | 4.0 | 0.00 | 0.00 | 0.00 | 61 | 1011.4 |
| 20260906150000 | 91 | 353 | 2.0 | 4.0 | 0.00 | 0.00 | 0.00 | 60 | 1011.3 |
| 20260906145500 | 91 | 33 | 2.0 | 4.0 | 0.00 | 0.00 | 0.00 | 62 | 1011.2 |
| 20260906145001 | 90 | 17 | 3.0 | 4.0 | 0.00 | 0.00 | 0.00 | 62 | 1011.2 |
| 20260906144500 | 89 | 324 | 1.0 | 4.0 | 0.00 | 0.00 | 0.00 | 62 | 1011.1 |
| 20260906144000 | 89 | 341 | 3.0 | 5.0 | 0.00 | 0.00 | 0.00 | 66 | 1011.2 |
| 20260906143500 | 89 | 342 | 4.0 | 5.0 | 0.00 | 0.00 | 0.00 | 63 | 1011.2 |
| 20260906143000 | 89 | 321 | 2.0 | 4.0 | 0.00 | 0.00 | 0.00 | 63 | 1011.2 |
| 20260906142500 | 88 | 29 | 2.0 | 4.0 | 0.00 | 0.00 | 0.00 | 68 | 1011.1 |
| 20260906142000 | 87 | 262 | 1.0 | 3.0 | 0.00 | 0.00 | 0.00 | 75 | 1011.2 |
| 20260906141500 | 86 | 215 | 1.0 | 3.0 | 0.00 | 0.00 | 0.00 | 70 | 1011.2 |
| 20260906141000 | 86 | 273 | 2.0 | 3.0 | 0.00 | 0.00 | 0.00 | 72 | 1011.1 |
| 20260906140500 | 85 | 291 | 2.0 | 3.0 | 0.00 | 0.00 | 0.00 | 75 | 1011.0 |
| 20260906140000 | 85 | 209 | 2.0 | 3.0 | 0.00 | 0.00 | 0.00 | 77 | 1011.0 |
| 20260906135500 | 84 | 279 | 2.0 | 3.0 | 0.00 | 0.00 | 0.00 | 77 | 1011.0 |
| 20260906135000 | 84 | 243 | 2.0 | 4.0 | 0.00 | 0.00 | 0.00 | 78 | 1011.0 |
| 20260906134500 | 83 | 240 | 3.0 | 4.0 | 0.00 | 0.00 | 0.00 | 81 | 1011.0 |
| 20260906134000 | 83 | 288 | 3.0 | 4.0 | 0.00 | 0.00 | 0.00 | 82 | 1011.0 |
| 20260906133500 | 82 | 286 | 2.0 | 3.0 | 0.00 | 0.00 | 0.00 | 83 | 1010.9 |
| 20260906133000 | 82 | 280 | 2.0 | 3.0 | 0.00 | 0.00 | 0.00 | 86 | 1010.9 |
| 20260906132500 | 81 | 192 | 1.0 | 3.0 | 0.00 | 0.00 | 0.00 | 85 | 1010.8 |
| 20260906132001 | 81 | 271 | 1.0 | 3.0 | 0.00 | 0.00 | 0.00 | 86 | 1010.7 |
| 20260906131500 | 80 | 275 | 2.0 | 2.0 | 0.00 | 0.00 | 0.00 | 88 | 1010.7 |
| 20260906131000 | 80 | 251 | 2.0 | 2.0 | 0.00 | 0.00 | 0.00 | 88 | 1010.6 |
| 20260906130500 | 80 | 260 | 1.0 | 1.0 | 0.00 | 0.00 | 0.00 | 88 | 1010.6 |
| 20260906130000 | 79 | 64 | 1.0 | 1.0 | 0.00 | 0.00 | 0.00 | 89 | 1010.5 |
| 20260906125500 | 79 | 93 | 1.0 | 2.0 | 0.00 | 0.00 | 0.00 | 90 | 1010.4 |
| 20260906125000 | 78 | 111 | 1.0 | 2.0 | 0.00 | 0.00 | 0.00 | 92 | 1010.4 |
| 20260906124501 | 78 | 166 | 1.0 | 2.0 | 0.00 | 0.00 | 0.00 | 92 | 1010.3 |
| 20260906124000 | 77 | 95 | 0.0 | 2.0 | 0.00 | 0.00 | 0.00 | 93 | 1010.2 |
| 20260906123500 | 77 | 9 | 1.0 | 2.0 | 0.00 | 0.00 | 0.00 | 93 | 1010.1 |
| 20260906123000 | 77 | 44 | 0.0 | 1.0 | 0.00 | 0.00 | 0.00 | 94 | 1010.0 |
| 20260906122500 | 76 | 85 | 0.0 | 2.0 | 0.00 | 0.00 | 0.00 | 94 | 1009.8 |
| 20260906122000 | 76 | 176 | 1.0 | 2.0 | 0.00 | 0.00 | 0.00 | 94 | 1009.7 |
| 20260906121500 | 75 | 129 | 1.0 | 2.0 | 0.00 | 0.00 | 0.00 | 94 | 1009.7 |
| 20260906121000 | 75 | 179 | 1.0 | 1.0 | 0.00 | 0.00 | 0.00 | 94 | 1009.6 |
| 20260906120500 | 75 | 161 | 1.0 | 1.0 | 0.00 | 0.00 | 0.00 | 94 | 1009.5 |
| 20260906120000 | 75 | 46 | 0.0 | 1.0 | 0.00 | 0.00 | 0.00 | 94 | 1009.4 |
| 20260906115500 | 75 | 355 | 1.0 | 1.0 | 0.00 | 0.00 | 0.00 | 93 | 1009.3 |
| 20260906115000 | 75 | 247 | 1.0 | 1.0 | 0.00 | 0.00 | 0.00 | 94 | 1009.3 |
| 20260906114500 | 75 | 300 | 1.0 | 1.0 | 0.00 | 0.00 | 0.00 | 94 | 1009.2 |
| 20260906114000 | 75 | 296 | 1.0 | 2.0 | 0.00 | 0.00 | 0.00 | 94 | 1009.1 |
| 20260906113500 | 75 | 11 | 1.0 | 2.0 | 0.00 | 0.00 | 0.00 | 94 | 1009.1 |
| 20260906113000 | 75 | 360 | 1.0 | 3.0 | 0.00 | 0.00 | 0.00 | 94 | 1009.0 |
| 20260906112500 | 75 | 236 | 1.0 | 4.0 | 0.00 | 0.00 | 0.00 | 94 | 1009.0 |
| 20260906112000 | 75 | 203 | 2.0 | 4.0 | 0.00 | 0.00 | 0.00 | 94 | 1008.9 |
| 20260906111500 | 75 | 202 | 3.0 | 4.0 | 0.00 | 0.00 | 0.00 | 94 | 1008.9 |
| 20260906111000 | 75 | 178 | 1.0 | 2.0 | 0.00 | 0.00 | 0.00 | 94 | 1008.8 |
| 20260906110500 | 75 | 188 | 1.0 | 3.0 | 0.00 | 0.00 | 0.00 | 94 | 1008.8 |
| 20260906110000 | 75 | 241 | 2.0 | 3.0 | 0.00 | 0.00 | 0.00 | 94 | 1008.8 |
| 20260906105500 | 75 | 245 | 2.0 | 3.0 | 0.00 | 0.00 | 0.00 | 93 | 1008.7 |
| 20260906105000 | 75 | 269 | 1.0 | 3.0 | 0.00 | 0.00 | 0.00 | 93 | 1008.7 |
| 20260906104500 | 75 | 280 | 1.0 | 2.0 | 0.00 | 0.00 | 0.00 | 93 | 1008.6 |
| 20260906104001 | 75 | 309 | 2.0 | 3.0 | 0.00 | 0.00 | 0.00 | 93 | 1008.7 |
| 20260906103500 | 75 | 273 | 2.0 | 3.0 | 0.00 | 0.00 | 0.00 | 93 | 1008.7 |
| 20260906103000 | 75 | 271 | 2.0 | 3.0 | 0.00 | 0.00 | 0.00 | 92 | 1008.7 |
| 20260906102500 | 75 | 323 | 2.0 | 3.0 | 0.00 | 0.00 | 0.00 | 92 | 1008.7 |
| 20260906102000 | 76 | 309 | 2.0 | 2.0 | 0.00 | 0.00 | 0.00 | 93 | 1008.6 |
| 20260906101500 | 75 | 324 | 1.0 | 1.0 | 0.00 | 0.00 | 0.00 | 93 | 1008.7 |
| 20260906101000 | 75 | 332 | 1.0 | 1.0 | 0.00 | 0.00 | 0.00 | 92 | 1008.7 |
| 20260906100500 | 76 | 8 | 0.0 | 3.0 | 0.00 | 0.00 | 0.00 | 92 | 1008.7 |
| 20260906100000 | 76 | 205 | 1.0 | 3.0 | 0.00 | 0.00 | 0.00 | 92 | 1008.7 |
| 20260906095500 | 76 | 207 | 1.0 | 1.0 | 0.00 | 0.00 | 0.00 | 92 | 1008.7 |
| 20260906095000 | 76 | 150 | 1.0 | 3.0 | 0.00 | 0.00 | 0.00 | 92 | 1008.7 |
| 20260906094500 | 76 | 18 | 1.0 | 3.0 | 0.00 | 0.00 | 0.00 | 92 | 1008.7 |
| 20260906094000 | 76 | 31 | 3.0 | 3.0 | 0.00 | 0.00 | 0.00 | 92 | 1008.6 |
| 20260906093501 | 76 | 62 | 1.0 | 3.0 | 0.00 | 0.00 | 0.00 | 92 | 1008.6 |
| 20260906093000 | 76 | 56 | 2.0 | 3.0 | 0.00 | 0.00 | 0.00 | 92 | 1008.6 |
| 20260906092500 | 76 | 136 | 2.0 | 3.0 | 0.00 | 0.00 | 0.00 | 92 | 1008.6 |
| 20260906092000 | 76 | 73 | 2.0 | 3.0 | 0.00 | 0.00 | 0.00 | 92 | 1008.5 |
| 20260906091500 | 76 | 71 | 3.0 | 3.0 | 0.00 | 0.00 | 0.00 | 92 | 1008.6 |
| 20260906091000 | 76 | 122 | 2.0 | 3.0 | 0.00 | 0.00 | 0.00 | 92 | 1008.5 |
| 20260906090500 | 76 | 152 | 2.0 | 3.0 | 0.00 | 0.00 | 0.00 | 92 | 1008.5 |
| 20260906090000 | 76 | 179 | 3.0 | 3.0 | 0.00 | 0.00 | 0.00 | 92 | 1008.4 |
| 20260906085500 | 76 | 166 | 2.0 | 3.0 | 0.00 | 0.00 | 0.00 | 92 | 1008.3 |
| 20260906085000 | 76 | 171 | 2.0 | 3.0 | 0.00 | 0.00 | 0.00 | 91 | 1008.2 |
| 20260906084500 | 76 | 179 | 2.0 | 2.0 | 0.00 | 0.00 | 0.00 | 91 | 1008.2 |
| 20260906084000 | 76 | 100 | 2.0 | 3.0 | 0.00 | 0.00 | 0.00 | 91 | 1008.1 |
| 20260906083500 | 76 | 135 | 1.0 | 3.0 | 0.00 | 0.00 | 0.00 | 90 | 1008.1 |
| 20260906083000 | 77 | 155 | 2.0 | 3.0 | 0.00 | 0.00 | 0.00 | 89 | 1008.2 |
| 20260906082500 | 77 | 155 | 1.0 | 1.0 | 0.00 | 0.00 | 0.00 | 89 | 1008.1 |
| 20260906082000 | 78 | 267 | 0.0 | 2.0 | 0.00 | 0.00 | 0.00 | 89 | 1008.1 |
| 20260906081500 | 78 | 270 | 1.0 | 2.0 | 0.00 | 0.00 | 0.00 | 89 | 1008.0 |
| 20260906081000 | 78 | 309 | 2.0 | 2.0 | 0.00 | 0.00 | 0.00 | 89 | 1007.9 |
| 20260906080500 | 77 | 326 | 2.0 | 2.0 | 0.00 | 0.00 | 0.00 | 89 | 1007.8 |
| 20260906080000 | 77 | 314 | 2.0 | 2.0 | 0.00 | 0.00 | 0.00 | 90 | 1007.8 |
| 20260906075500 | 77 | 277 | 2.0 | 2.0 | 0.00 | 0.00 | 0.00 | 90 | 1007.8 |
| 20260906075000 | 77 | 245 | 1.0 | 2.0 | 0.00 | 0.00 | 0.00 | 90 | 1007.9 |
| 20260906074500 | 77 | 311 | 2.0 | 2.0 | 0.00 | 0.00 | 0.00 | 90 | 1007.9 |
| 20260906074000 | 77 | 290 | 2.0 | 3.0 | 0.00 | 0.00 | 0.00 | 91 | 1007.9 |
| 20260906073500 | 77 | 275 | 2.0 | 4.0 | 0.00 | 0.00 | 0.00 | 90 | 1008.1 |
| 20260906073000 | 77 | 283 | 2.0 | 4.0 | 0.00 | 0.00 | 0.00 | 91 | 1008.0 |
| 20260906072500 | 77 | 255 | 3.0 | 3.0 | 0.00 | 0.00 | 0.00 | 90 | 1008.1 |
| 20260906072000 | 77 | 300 | 2.0 | 4.0 | 0.00 | 0.00 | 0.00 | 90 | 1008.1 |
| 20260906071500 | 77 | 328 | 3.0 | 4.0 | 0.00 | 0.00 | 0.00 | 91 | 1008.1 |
| 20260906071000 | 77 | 347 | 2.0 | 3.0 | 0.00 | 0.00 | 0.00 | 91 | 1008.1 |
| 20260906070500 | 77 | 348 | 2.0 | 3.0 | 0.00 | 0.00 | 0.00 | 91 | 1008.1 |
| 20260906070000 | 77 | 6 | 1.0 | 3.0 | 0.00 | 0.00 | 0.00 | 91 | 1008.2 |
| 20260906065500 | 77 | 325 | 2.0 | 5.0 | 0.00 | 0.00 | 0.00 | 90 | 1008.3 |
| 20260906065000 | 77 | 205 | 2.0 | 5.0 | 0.00 | 0.00 | 0.00 | 90 | 1008.4 |
| 20260906064500 | 78 | 227 | 3.0 | 3.0 | 0.00 | 0.00 | 0.00 | 90 | 1008.4 |
| 20260906064000 | 78 | 227 | 1.0 | 1.0 | 0.00 | 0.00 | 0.00 | 90 | 1008.4 |
| 20260906063500 | 78 | 273 | 1.0 | 2.0 | 0.00 | 0.00 | 0.00 | 89 | 1008.4 |
| 20260906063000 | 78 | 305 | 1.0 | 2.0 | 0.00 | 0.00 | 0.00 | 89 | 1008.5 |
| 20260906062500 | 78 | 303 | 1.0 | 2.0 | 0.00 | 0.00 | 0.00 | 88 | 1008.5 |
| 20260906062000 | 79 | 318 | 1.0 | 1.0 | 0.00 | 0.00 | 0.00 | 88 | 1008.6 |
| 20260906061500 | 79 | 39 | 1.0 | 1.0 | 0.00 | 0.00 | 0.00 | 88 | 1008.7 |
| 20260906061000 | 79 | 38 | 1.0 | 2.0 | 0.00 | 0.00 | 0.00 | 88 | 1008.7 |
| 20260906060500 | 79 | 142 | 1.0 | 2.0 | 0.00 | 0.00 | 0.00 | 88 | 1008.7 |
| 20260906060000 | 79 | 124 | 1.0 | 2.0 | 0.00 | 0.00 | 0.00 | 89 | 1008.6 |
| 20260906055500 | 78 | 2 | 0.0 | 3.0 | 0.00 | 0.00 | 0.00 | 90 | 1008.7 |
| 20260906055000 | 78 | 357 | 1.0 | 3.0 | 0.00 | 0.00 | 0.00 | 90 | 1008.7 |
| 20260906054500 | 79 | 355 | 2.0 | 3.0 | 0.00 | 0.00 | 0.00 | 90 | 1008.6 |
| 20260906054000 | 79 | 156 | 1.0 | 9.0 | 0.00 | 0.00 | 0.00 | 90 | 1008.7 |
| 20260906053500 | 78 | 200 | 3.0 | 9.0 | 0.00 | 0.00 | 0.00 | 90 | 1008.6 |
| 20260906053000 | 78 | 191 | 9.0 | 9.0 | 0.00 | 0.00 | 0.00 | 90 | 1008.7 |
| 20260906052500 | 78 | 233 | 1.0 | 1.0 | 0.00 | 0.00 | 0.00 | 90 | 1008.5 |
| 20260906052000 | 79 | 214 | 1.0 | 2.0 | 0.00 | 0.00 | 0.00 | 89 | 1008.5 |
| 20260906051500 | 79 | 221 | 1.0 | 2.0 | 0.00 | 0.00 | 0.00 | 89 | 1008.4 |
| 20260906051005 | 79 | 240 | 1.0 | 2.0 | 0.00 | 0.00 | 0.00 | 89 | 1008.4 |
| 20260906050000 | 79 | 103 | 0.0 | 1.0 | 0.00 | 0.00 | 0.00 | 88 | 1008.3 |
| 20260906045500 | 79 | 71 | 1.0 | 1.0 | 0.00 | 0.00 | 0.00 | 88 | 1008.4 |
| 20260906045000 | 79 | 97 | 1.0 | 1.0 | 0.00 | 0.00 | 0.00 | 88 | 1008.4 |
| 20260906044500 | 79 | 121 | 1.0 | 1.0 | 0.00 | 0.00 | 0.00 | 87 | 1008.4 |
| 20260906044000 | 79 | 66 | 1.0 | 1.0 | 0.00 | 0.00 | 0.00 | 87 | 1008.3 |
| 20260906043501 | 79 | 89 | 1.0 | 1.0 | 0.00 | 0.00 | 0.00 | 88 | 1008.3 |
| 20260906043000 | 79 | 117 | 1.0 | 1.0 | 0.00 | 0.00 | 0.00 | 89 | 1008.2 |
| 20260906042500 | 79 | 120 | 1.0 | 2.0 | 0.00 | 0.00 | 0.00 | 89 | 1008.1 |
| 20260906042000 | 79 | 143 | 1.0 | 2.0 | 0.00 | 0.00 | 0.00 | 90 | 1008.1 |
| 20260906041500 | 79 | 163 | 2.0 | 2.0 | 0.00 | 0.00 | 0.00 | 89 | 1008.0 |
| 20260906041000 | 79 | 187 | 1.0 | 1.0 | 0.00 | 0.00 | 0.00 | 89 | 1008.1 |
| 20260906040500 | 79 | 243 | 1.0 | 2.0 | 0.00 | 0.00 | 0.00 | 89 | 1008.1 |
| 20260906040000 | 79 | 284 | 1.0 | 2.0 | 0.00 | 0.00 | 0.00 | 89 | 1008.2 |
| 20260906035500 | 79 | 272 | 1.0 | 2.0 | 0.00 | 0.00 | 0.00 | 88 | 1008.2 |
| 20260906035000 | 79 | 275 | 1.0 | 2.0 | 0.00 | 0.00 | 0.00 | 88 | 1008.2 |
| 20260906034500 | 80 | 267 | 1.0 | 2.0 | 0.00 | 0.00 | 0.00 | 88 | 1008.2 |
| 20260906034000 | 80 | 267 | 1.0 | 2.0 | 0.00 | 0.00 | 0.00 | 87 | 1008.3 |
| 20260906033500 | 80 | 284 | 2.0 | 2.0 | 0.00 | 0.00 | 0.00 | 87 | 1008.3 |
| 20260906033000 | 80 | 290 | 1.0 | 2.0 | 0.00 | 0.00 | 0.00 | 87 | 1008.5 |
| 20260906032500 | 80 | 296 | 1.0 | 2.0 | 0.00 | 0.00 | 0.00 | 87 | 1008.5 |
| 20260906032001 | 80 | 287 | 2.0 | 2.0 | 0.00 | 0.00 | 0.00 | 87 | 1008.6 |
| 20260906031500 | 80 | 305 | 2.0 | 2.0 | 0.00 | 0.00 | 0.00 | 88 | 1008.5 |
| 20260906031000 | 80 | 338 | 1.0 | 1.0 | 0.00 | 0.00 | 0.00 | 88 | 1008.6 |
| 20260906030500 | 80 | 339 | 1.0 | 1.0 | 0.00 | 0.00 | 0.00 | 88 | 1008.6 |
| 20260906030001 | 80 | 324 | 1.0 | 1.0 | 0.00 | 0.00 | 0.00 | 88 | 1008.6 |
| 20260906025500 | 80 | 8 | 0.0 | 1.0 | 0.00 | 0.00 | 0.00 | 88 | 1008.6 |
| 20260906025000 | 80 | 343 | 1.0 | 1.0 | 0.00 | 0.00 | 0.00 | 88 | 1008.6 |
| 20260906024500 | 80 | 316 | 0.0 | 2.0 | 0.00 | 0.00 | 0.00 | 88 | 1008.5 |
| 20260906024000 | 80 | 204 | 1.0 | 2.0 | 0.00 | 0.00 | 0.00 | 87 | 1008.6 |
| 20260906023500 | 80 | 213 | 2.0 | 2.0 | 0.00 | 0.00 | 0.00 | 87 | 1008.6 |
| 20260906023000 | 80 | 231 | 1.0 | 1.0 | 0.00 | 0.00 | 0.00 | 87 | 1008.7 |
| 20260906022500 | 81 | 291 | 0.0 | 1.0 | 0.00 | 0.00 | 0.00 | 86 | 1008.6 |
| 20260906022000 | 81 | 267 | 1.0 | 1.0 | 0.00 | 0.00 | 0.00 | 86 | 1008.6 |
| 20260906021500 | 81 | 263 | 1.0 | 2.0 | 0.00 | 0.00 | 0.00 | 85 | 1008.6 |
| 20260906021000 | 81 | 287 | 1.0 | 3.0 | 0.00 | 0.00 | 0.00 | 85 | 1008.5 |
| 20260906020500 | 82 | 312 | 2.0 | 3.0 | 0.00 | 0.00 | 0.00 | 84 | 1008.5 |
| 20260906020000 | 82 | 324 | 2.0 | 2.0 | 0.00 | 0.00 | 0.00 | 84 | 1008.4 |
| 20260906015500 | 82 | 310 | 1.0 | 2.0 | 0.00 | 0.00 | 0.00 | 84 | 1008.3 |
| 20260906015000 | 82 | 298 | 1.0 | 2.0 | 0.00 | 0.00 | 0.00 | 82 | 1008.2 |
| 20260906014500 | 82 | 295 | 1.0 | 1.0 | 0.00 | 0.00 | 0.00 | 83 | 1008.2 |
| 20260906014000 | 82 | 232 | 1.0 | 1.0 | 0.00 | 0.00 | 0.00 | 83 | 1008.2 |
| 20260906013500 | 82 | 113 | 0.0 | 2.0 | 0.00 | 0.00 | 0.00 | 83 | 1008.0 |
| 20260906013000 | 83 | 3 | 1.0 | 2.0 | 0.00 | 0.00 | 0.00 | 83 | 1008.0 |
| 20260906012500 | 83 | 357 | 1.0 | 1.0 | 0.00 | 0.00 | 0.00 | 84 | 1008.1 |
| 20260906012000 | 83 | 287 | 1.0 | 2.0 | 0.00 | 0.00 | 0.00 | 84 | 1008.0 |
| 20260906011500 | 83 | 282 | 1.0 | 2.0 | 0.00 | 0.00 | 0.00 | 84 | 1008.0 |
| 20260906011000 | 83 | 283 | 2.0 | 2.0 | 0.00 | 0.00 | 0.00 | 82 | 1007.9 |
| 20260906010500 | 84 | 264 | 1.0 | 2.0 | 0.00 | 0.00 | 0.00 | 82 | 1007.8 |
| 20260906010000 | 84 | 209 | 1.0 | 2.0 | 0.00 | 0.00 | 0.00 | 80 | 1007.7 |
| 20260906005500 | 84 | 200 | 1.0 | 1.0 | 0.00 | 0.00 | 0.00 | 79 | 1007.7 |
| 20260906005000 | 85 | 299 | 0.0 | 1.0 | 0.00 | 0.00 | 0.00 | 79 | 1007.7 |
| 20260906004500 | 85 | 188 | 0.0 | 1.0 | 0.00 | 0.00 | 0.00 | 78 | 1007.8 |
| 20260906004000 | 86 | 228 | 1.0 | 2.0 | 0.00 | 0.00 | 0.00 | 76 | 1007.7 |
| 20260906003500 | 86 | 252 | 1.0 | 2.0 | 0.00 | 0.00 | 0.00 | 72 | 1007.8 |
| 20260906003000 | 86 | 331 | 1.0 | 2.0 | 0.00 | 0.00 | 0.00 | 73 | 1007.9 |
| 20260906002500 | 86 | 347 | 2.0 | 2.0 | 0.00 | 0.00 | 0.00 | 71 | 1007.8 |
| 20260906002000 | 87 | 2 | 1.0 | 2.0 | 0.00 | 0.00 | 0.00 | 75 | 1007.9 |
| 20260906001500 | 89 | 43 | 2.0 | 2.0 | 0.00 | 0.00 | 0.00 | 72 | 1008.0 |
| 20260906001000 | 89 | 70 | 2.0 | 2.0 | 0.00 | 0.00 | 0.00 | 69 | 1008.1 |
| 20260906000500 | 90 | 180 | 1.0 | 2.0 | 0.00 | 0.00 | 0.00 | 68 | 1008.1 |
| 20260906000000 | 90 | 187 | 2.0 | 2.0 | 0.00 | 0.00 | 0.00 | 68 | 1008.2 |
| 20260905235500 | 90 | 184 | 1.0 | 2.0 | 0.00 | 0.00 | 0.00 | 69 | 1008.2 |
| 20260905235000 | 91 | 138 | 1.0 | 2.0 | 0.00 | 0.00 | 0.00 | 67 | 1008.3 |
| 20260905234500 | 91 | 86 | 2.0 | 2.0 | 0.00 | 0.00 | 0.00 | 67 | 1008.4 |
| 20260905234000 | 91 | 80 | 2.0 | 3.0 | 0.00 | 0.00 | 0.00 | 66 | 1008.4 |
| 20260905233500 | 92 | 106 | 2.0 | 3.0 | 0.00 | 0.00 | 0.00 | 65 | 1008.4 |
| 20260905233000 | 93 | 82 | 2.0 | 2.0 | 0.00 | 0.00 | 0.00 | 67 | 1008.5 |
| 20260905232500 | 93 | 8 | 1.0 | 2.0 | 0.00 | 0.00 | 0.00 | 63 | 1008.4 |
| 20260905232000 | 93 | 274 | 0.0 | 4.0 | 0.00 | 0.00 | 0.00 | 64 | 1008.4 |
| 20260905231500 | 93 | 66 | 1.0 | 4.0 | 0.00 | 0.00 | 0.00 | 61 | 1008.4 |
| 20260905231000 | 93 | 182 | 4.0 | 6.0 | 0.00 | 0.00 | 0.00 | 58 | 1008.3 |
| 20260905230500 | 93 | 187 | 3.0 | 6.0 | 0.00 | 0.00 | 0.00 | 58 | 1008.3 |
| 20260905230000 | 93 | 195 | 4.0 | 6.0 | 0.00 | 0.00 | 0.00 | 58 | 1008.2 |
| 20260905225500 | 93 | 185 | 4.0 | 6.0 | 0.00 | 0.00 | 0.00 | 57 | 1008.2 |
| 20260905225000 | 93 | 183 | 4.0 | 6.0 | 0.00 | 0.00 | 0.00 | 56 | 1008.2 |
| 20260905224500 | 93 | 189 | 4.0 | 6.0 | 0.00 | 0.00 | 0.00 | 57 | 1008.2 |
| 20260905224000 | 92 | 194 | 4.0 | 7.0 | 0.00 | 0.00 | 0.00 | 58 | 1008.2 |
| 20260905223454 | 92 | 192 | 5.0 | 7.0 | 0.00 | 0.00 | 0.00 | 58 | 1008.1 |
| 20260905222954 | 91 | 148 | 4.0 | 6.0 | 0.00 | 0.00 | 0.00 | 58 | 1008.2 |
| 20260905222454 | 91 | 158 | 2.0 | 5.0 | 0.00 | 0.00 | 0.00 | 59 | 1008.2 |
| 20260905221954 | 91 | 48 | 2.0 | 5.0 | 0.00 | 0.00 | 0.00 | 62 | 1008.2 |
| 20260905221454 | 89 | 161 | 4.0 | 11.0 | 0.00 | 0.00 | 0.00 | 62 | 1008.2 |
| 20260905220954 | 88 | 187 | 5.0 | 12.0 | 0.00 | 0.00 | 0.00 | 63 | 1008.2 |
| 20260905220454 | 88 | 200 | 7.0 | 12.0 | 0.00 | 0.00 | 0.00 | 64 | 1008.2 |
| 20260905215954 | 86 | 173 | 12.0 | 12.0 | 0.00 | 0.00 | 0.00 | 67 | 1008.3 |
| 20260905215454 | 87 | 190 | 7.0 | 14.0 | 0.00 | 0.00 | 0.00 | 69 | 1008.5 |
| 20260905214512 | 90 | 188 | 7.0 | 15.0 | 0.00 | 0.00 | 0.00 | 63 | 1008.7 |
| 20260905213507 | 92 | 161 | 9.0 | 19.0 | 0.00 | 0.00 | 0.00 | 56 | 1008.8 |
| 20260905213000 | 92 | 150 | 12.0 | 19.0 | 0.00 | 0.00 | 0.00 | 54 | 1008.8 |
| 20260905212500 | 93 | 119 | 9.0 | 19.0 | 0.00 | 0.00 | 0.00 | 54 | 1008.9 |
| 20260905212000 | 95 | 151 | 10.0 | 19.0 | 0.00 | 0.00 | 0.00 | 51 | 1008.8 |
| 20260905211500 | 97 | 64 | 4.0 | 8.0 | 0.00 | 0.00 | 0.00 | 43 | 1008.6 |
| 20260905211000 | 97 | 98 | 4.0 | 9.0 | 0.00 | 0.00 | 0.00 | 41 | 1008.7 |
| 20260905210500 | 98 | 84 | 5.0 | 9.0 | 0.00 | 0.00 | 0.00 | 44 | 1008.7 |
| 20260905210000 | 99 | 52 | 6.0 | 9.0 | 0.00 | 0.00 | 0.00 | 43 | 1008.8 |
| 20260905205500 | 99 | 79 | 2.0 | 9.0 | 0.00 | 0.00 | 0.00 | 43 | 1008.8 |
| 20260905205000 | 100 | 54 | 5.0 | 8.0 | 0.00 | 0.00 | 0.00 | 41 | 1008.9 |
| 20260905204500 | 99 | 30 | 2.0 | 8.0 | 0.00 | 0.00 | 0.00 | 43 | 1008.9 |
| 20260905204000 | 99 | 327 | 3.0 | 8.0 | 0.00 | 0.00 | 0.00 | 46 | 1009.0 |
| 20260905203500 | 100 | 39 | 2.0 | 8.0 | 0.00 | 0.00 | 0.00 | 41 | 1009.1 |
| 20260905203000 | 100 | 13 | 5.0 | 8.0 | 0.00 | 0.00 | 0.00 | 43 | 1009.3 |
| 20260905202500 | 100 | 321 | 5.0 | 7.0 | 0.00 | 0.00 | 0.00 | 41 | 1009.3 |
| 20260905202000 | 100 | 91 | 5.0 | 9.0 | 0.00 | 0.00 | 0.00 | 43 | 1009.4 |
| 20260905201500 | 99 | 76 | 3.0 | 10.0 | 0.00 | 0.00 | 0.00 | 43 | 1009.5 |
| 20260905201000 | 99 | 93 | 3.0 | 10.0 | 0.00 | 0.00 | 0.00 | 42 | 1009.5 |
| 20260905200500 | 99 | 101 | 4.0 | 10.0 | 0.00 | 0.00 | 0.00 | 46 | 1009.7 |
| 20260905200000 | 99 | 357 | 6.0 | 10.0 | 0.00 | 0.00 | 0.00 | 44 | 1009.8 |
| 20260905195500 | 99 | 150 | 1.0 | 10.0 | 0.00 | 0.00 | 0.00 | 43 | 1009.9 |
| 20260905195000 | 99 | 226 | 2.0 | 10.0 | 0.00 | 0.00 | 0.00 | 43 | 1009.9 |
| 20260905194500 | 98 | 115 | 3.0 | 10.0 | 0.00 | 0.00 | 0.00 | 44 | 1010.0 |
| 20260905194006 | 98 | 338 | 3.0 | 7.0 | 0.00 | 0.00 | 0.00 | 46 | 1010.1 |
| 20260905193000 | 99 | 312 | 5.0 | 7.0 | 0.00 | 0.00 | 0.00 | 45 | 1010.2 |
| 20260905192500 | 98 | 318 | 3.0 | 8.0 | 0.00 | 0.00 | 0.00 | 47 | 1010.1 |
| 20260905192000 | 97 | 319 | 2.0 | 9.0 | 0.00 | 0.00 | 0.00 | 44 | 1010.2 |
| 20260905191500 | 98 | 355 | 3.0 | 10.0 | 0.00 | 0.00 | 0.00 | 45 | 1010.4 |
| 20260905191000 | 99 | 6 | 8.0 | 11.0 | 0.00 | 0.00 | 0.00 | 43 | 1010.5 |
| 20260905190500 | 99 | 304 | 2.0 | 11.0 | 0.00 | 0.00 | 0.00 | 43 | 1010.5 |
| 20260905190000 | 99 | 316 | 3.0 | 9.0 | 0.00 | 0.00 | 0.00 | 45 | 1010.5 |
| 20260905185500 | 100 | 283 | 2.0 | 6.0 | 0.00 | 0.00 | 0.00 | 45 | 1010.6 |
| 20260905185000 | 98 | 47 | 2.0 | 8.0 | 0.00 | 0.00 | 0.00 | 45 | 1010.6 |
| 20260905184500 | 97 | 323 | 4.0 | 8.0 | 0.00 | 0.00 | 0.00 | 44 | 1010.7 |
| 20260905184000 | 98 | 49 | 7.0 | 7.0 | 0.00 | 0.00 | 0.00 | 48 | 1010.9 |
| 20260905183500 | 99 | 217 | 4.0 | 9.0 | 0.00 | 0.00 | 0.00 | 45 | 1010.9 |
| 20260905183000 | 99 | 93 | 3.0 | 9.0 | 0.00 | 0.00 | 0.00 | 44 | 1011.1 |
| 20260905182500 | 99 | 89 | 3.0 | 6.0 | 0.00 | 0.00 | 0.00 | 44 | 1011.1 |
| 20260905182000 | 98 | 191 | 2.0 | 7.0 | 0.00 | 0.00 | 0.00 | 39 | 1011.0 |
| 20260905181501 | 98 | 49 | 6.0 | 7.0 | 0.00 | 0.00 | 0.00 | 40 | 1011.0 |
| 20260905181000 | 97 | 338 | 3.0 | 9.0 | 0.00 | 0.00 | 0.00 | 41 | 1011.1 |
| 20260905180500 | 97 | 331 | 5.0 | 9.0 | 0.00 | 0.00 | 0.00 | 44 | 1011.1 |
| 20260905180000 | 95 | 304 | 6.0 | 9.0 | 0.00 | 0.00 | 0.00 | 45 | 1011.1 |
| 20260905175500 | 95 | 315 | 2.0 | 9.0 | 0.00 | 0.00 | 0.00 | 44 | 1011.2 |
| 20260905175000 | 95 | 310 | 8.0 | 9.0 | 0.00 | 0.00 | 0.00 | 45 | 1011.2 |
| 20260905174500 | 95 | 324 | 6.0 | 9.0 | 0.00 | 0.00 | 0.00 | 46 | 1011.3 |
| 20260905174000 | 96 | 310 | 6.0 | 9.0 | 0.00 | 0.00 | 0.00 | 44 | 1011.3 |
| 20260905173500 | 97 | 350 | 4.0 | 9.0 | 0.00 | 0.00 | 0.00 | 46 | 1011.4 |
| 20260905173001 | 95 | 266 | 7.0 | 9.0 | 0.00 | 0.00 | 0.00 | 46 | 1011.3 |
| 20260905172500 | 95 | 228 | 1.0 | 10.0 | 0.00 | 0.00 | 0.00 | 44 | 1011.5 |
| 20260905172000 | 95 | 326 | 3.0 | 10.0 | 0.00 | 0.00 | 0.00 | 46 | 1011.5 |
| 20260905171500 | 95 | 273 | 3.0 | 8.0 | 0.00 | 0.00 | 0.00 | 46 | 1011.7 |
| 20260905171000 | 96 | 294 | 2.0 | 8.0 | 0.00 | 0.00 | 0.00 | 46 | 1011.8 |
| 20260905170500 | 96 | 286 | 1.0 | 9.0 | 0.00 | 0.00 | 0.00 | 42 | 1011.8 |
| 20260905170000 | 97 | 291 | 3.0 | 9.0 | 0.00 | 0.00 | 0.00 | 43 | 1011.9 |
| 20260905165500 | 96 | 328 | 5.0 | 8.0 | 0.00 | 0.00 | 0.00 | 45 | 1011.9 |
| 20260905165000 | 95 | 359 | 2.0 | 10.0 | 0.00 | 0.00 | 0.00 | 43 | 1011.9 |
| 20260905164500 | 96 | 19 | 4.0 | 10.0 | 0.00 | 0.00 | 0.00 | 45 | 1012.0 |
| 20260905164000 | 96 | 14 | 4.0 | 6.0 | 0.00 | 0.00 | 0.00 | 43 | 1012.1 |
| 20260905163500 | 95 | 315 | 2.0 | 10.0 | 0.00 | 0.00 | 0.00 | 47 | 1012.1 |
| 20260905163000 | 95 | 273 | 2.0 | 10.0 | 0.00 | 0.00 | 0.00 | 49 | 1012.1 |
| 20260905162500 | 95 | 323 | 4.0 | 7.0 | 0.00 | 0.00 | 0.00 | 49 | 1012.2 |
| 20260905162000 | 95 | 328 | 2.0 | 8.0 | 0.00 | 0.00 | 0.00 | 50 | 1012.3 |
| 20260905161500 | 94 | 337 | 5.0 | 8.0 | 0.00 | 0.00 | 0.00 | 50 | 1012.2 |
| 20260905161000 | 94 | 329 | 4.0 | 9.0 | 0.00 | 0.00 | 0.00 | 50 | 1012.2 |
| 20260905160501 | 94 | 340 | 4.0 | 9.0 | 0.00 | 0.00 | 0.00 | 52 | 1012.2 |
| 20260905160000 | 93 | 348 | 3.0 | 8.0 | 0.00 | 0.00 | 0.00 | 50 | 1012.2 |
| 20260905155500 | 93 | 30 | 4.0 | 7.0 | 0.00 | 0.00 | 0.00 | 54 | 1012.2 |
| 20260905155000 | 93 | 333 | 2.0 | 7.0 | 0.00 | 0.00 | 0.00 | 57 | 1012.2 |
| 20260905154500 | 93 | 338 | 6.0 | 7.0 | 0.00 | 0.00 | 0.00 | 55 | 1012.1 |
| 20260905154000 | 92 | 343 | 4.0 | 8.0 | 0.00 | 0.00 | 0.00 | 57 | 1012.1 |
| 20260905153500 | 92 | 359 | 3.0 | 8.0 | 0.00 | 0.00 | 0.00 | 55 | 1012.1 |